• pl
  • eng

Awiacja
WIADOMOŚCI
ostatnia aktualizacja: 17.04.2020 19:04
Szanowni Państwo,

mając na uwadze sytuację związaną z pandemią wywołaną koronawirusem SARS-Cov-2 oraz w trosce o bezpieczeństwo Państwa oraz naszych pracowników, IMGW-PIB podjął decyzję o przeniesieniu kolejnej edycji Szkoły Meteorologii Lotniczej na przyszły rok. W tej chwili podanie dokładnego terminu szkoły nie jest możliwe, ale jak tylko będzie znany zostanie ogłoszony na naszych stronach internetowych, do których śledzenia serdecznie zapraszamy.

TAF FC 13:30 18.09.2020
  • WIND
  • SIGNIFICANT EURO
  • SIGNIFICANT
  • SIGMET
  • AIRMET
  • TAF FC
  • TAF FT
  • METAR GG30
  • METAR GG00


TAF EPLB 181130Z 1812/1821 31010KT CAVOK
PROB40 TEMPO 1812/1815 32015G25KT=

TAF AMD EPRA 181356Z 1812/1821 CNL=

TAF EPSY 181130Z 1812/1821 31010KT CAVOK=

TAF EPZG 181130Z 1812/1821 VRB02KT CAVOK=
Awiacja.imgw.pl jest pogodowym serwisem informacyjnym
Instytutu Meteorologii i Gospodarki Wodnej Państwowego Instytutu Badawczego.
Copyright IMGW PIB 2009-2019© Wszelkie prawa zastrzeżone.